Location: Newark
(48.5667°N, 3.3000°E)
Time: 08:48:28
(UTC+00:00)

N. Korean satellite - Visible Passes

Search period start: 23 October 2019 00:00
Search period end: 02 November 2019 00:00
Orbit: 455 x 508 km, 97.2° (Epoch: 22 October)

Date Brightness Start Highest point End Pass type
(mag) Time Alt. Az. Time Alt. Az. Time Alt. Az.
23 Oct 9.2 05:06:05 10° NE 05:09:11 26° E 05:12:18 10° SSE visible
23 Oct 8.4 17:18:21 10° SSW 17:21:32 35° W 17:24:47 10° NNW visible
24 Oct 10.2 04:41:40 10° ENE 04:43:42 14° E 04:45:43 10° SE visible
25 Oct 10.2 18:03:13 10° WSW 18:04:37 12° W 18:06:02 10° WNW visible
26 Oct 8.2 05:23:14 10° NNE 05:26:44 41° E 05:30:14 10° S visible
26 Oct 9.4 17:36:17 10° SSW 17:39:04 23° W 17:41:55 10° NW visible
27 Oct 9.5 04:58:22 10° NE 05:01:17 22° E 05:04:12 10° SE visible
27 Oct 7.9 17:10:18 10° S 17:13:37 44° W 17:17:00 10° NNW visible
28 Oct 10.3 04:34:18 10° ENE 04:35:44 12° E 04:37:12 10° ESE visible
29 Oct 7.1 05:40:32 10° NNE 05:44:12 67° ESE 05:47:53 10° S visible
29 Oct 10.0 17:54:34 10° SW 17:56:37 15° W 17:58:41 10° NW visible
30 Oct 8.6 05:15:25 10° NNE 05:18:48 34° E 05:22:13 10° SSE visible
30 Oct 9.0 17:28:04 10° SSW 17:31:05 28° W 17:34:11 10° NW visible
31 Oct 9.8 04:50:41 10° NE 04:53:19 18° E 04:55:58 10° SE visible
31 Oct 7.4 17:02:14 10° S 17:05:39 56° W 17:09:10 10° NNW visible
